QPF
0.00 0.00 0.01 0.01 0.01 0.01 0.00 0.00 0.00 0.01 0.00 0.00 0.00 0.01 0.00 0.00 0.00 0.00 0.00 0.01 0.01 0.00 0.00 0.00 0.00 0.00 0.00 0.01 0.03 0.03 0.04 0.06 0.06 0.06 0.05 0.04 0.04 0.05 0.05 0.05 0.04 0.04 0.04 0.04
0.00 0.00 0.00 0.00 0.00 0.00 0.00 0.00 0.00 0.00 0.00 0.00 0.00 0.03 0.01 0.00 0.00 0.00 0.01 0.01 0.01 0.00 0.00 0.00 0.00 0.00 0.00 0.01 0.02 0.02 0.03 0.04 0.04 0.04 0.04 0.03 0.04 0.04 0.03 0.03 0.03 0.03 0.03 0.03
0.00 0.00 0.00 0.00 0.00 0.00 0.00 0.00 0.00 0.00 0.00 0.00 0.01 0.04 0.04 0.01 0.00 0.00 0.00 0.00 0.00 0.00 0.00 0.00 0.00 0.00 0.00 0.01 0.02 0.02 0.02 0.02 0.02 0.02 0.02 0.03 0.03 0.04 0.03 0.03 0.03 0.03 0.03 0.03
0.00 0.00 0.00 0.00 0.00 0.00 0.00 0.00 0.00 0.00 0.00 0.00 0.00 0.03 0.06 0.02 0.01 0.00 0.00 0.00 0.00 0.00 0.00 0.00 0.00 0.00 0.00 0.01 0.01 0.01 0.01 0.01 0.02 0.02 0.03 0.03 0.03 0.04 0.04 0.04 0.04 0.04 0.02 0.03
0.00 0.00 0.00 0.00 0.00 0.00 0.00 0.00 0.00 0.00 0.00 0.01 0.01 0.02 0.03 0.03 0.03 0.02 0.00 0.00 0.00 0.00 0.00 0.00 0.00 0.00 0.00 0.01 0.01 0.01 0.00 0.01 0.02 0.03 0.04 0.04 0.03 0.03 0.04 0.04 0.05 0.05 0.03 0.02
0.00 0.00 0.00 0.00 0.00 0.00 0.00 0.00 0.00 0.00 0.01 0.04 0.03 0.02 0.02 0.04 0.06 0.03 0.01 0.00 0.00 0.00 0.00 0.00 0.00 0.00 0.00 0.00 0.01 0.01 0.00 0.01 0.02 0.03 0.04 0.04 0.03 0.03 0.03 0.04 0.04 0.03 0.03 0.02
0.00 0.00 0.00 0.00 0.00 0.00 0.00 0.00 0.02 0.03 0.03 0.03 0.04 0.03 0.02 0.02 0.02 0.01 0.00 0.00 0.00 0.00 0.00 0.00 0.00 0.00 0.00 0.00 0.01 0.01 0.01 0.01 0.02 0.03 0.04 0.04 0.03 0.02 0.03 0.03 0.03 0.03 0.02 0.03
0.00 0.00 0.00 0.00 0.00 0.00 0.00 0.01 0.03 0.06 0.07 0.06 0.05 0.05 0.05 0.03 0.02 0.00 0.00 0.00 0.00 0.00 0.00 0.00 0.00 0.00 0.00 0.00 0.00 0.01 0.01 0.02 0.02 0.03 0.03 0.03 0.03 0.03 0.03 0.04 0.03 0.04 0.04 0.04
0.01 0.01 0.00 0.00 0.01 0.01 0.01 0.01 0.02 0.04 0.06 0.05 0.03 0.03 0.04 0.03 0.01 0.00 0.01 0.01 0.01 0.01 0.00 0.00 0.00 0.00 0.00 0.00 0.00 0.01 0.02 0.02 0.02 0.02 0.02 0.02 0.03 0.03 0.02 0.02 0.02 0.02 0.03 0.02
0.01 0.01 0.01 0.01 0.01 0.01 0.01 0.01 0.02 0.04 0.07 0.06 0.04 0.04 0.05 0.04 0.01 0.01 0.01 0.01 0.02 0.02 0.00 0.00 0.00 0.00 0.00 0.01 0.01 0.01 0.02 0.02 0.02 0.02 0.02 0.02 0.02 0.02 0.02 0.02 0.02 0.02 0.02 0.02
0.00 0.01 0.01 0.01 0.01 0.01 0.01 0.01 0.01 0.02 0.03 0.05 0.06 0.05 0.03 0.04 0.05 0.03 0.02 0.02 0.03 0.03 0.01 0.01 0.00 0.00 0.01 0.02 0.03 0.03 0.03 0.04 0.03 0.03 0.03 0.02 0.02 0.01 0.01 0.01 0.01 0.03 0.03 0.03
0.00 0.01 0.03 0.03 0.01 0.01 0.00 0.00 0.00 0.02 0.03 0.03 0.04 0.05 0.03 0.04 0.05 0.02 0.01 0.01 0.01 0.01 0.01 0.01 0.01 0.02 0.05 0.08 0.07 0.05 0.04 0.04 0.03 0.02 0.01 0.01 0.01 0.01 0.01 0.02 0.02 0.02 0.03 0.02
0.00 0.01 0.04 0.07 0.05 0.03 0.01 0.00 0.00 0.01 0.03 0.04 0.05 0.05 0.03 0.02 0.02 0.02 0.02 0.03 0.02 0.01 0.02 0.02 0.02 0.05 0.10 0.12 0.08 0.04 0.02 0.01 0.01 0.00 0.00 0.01 0.01 0.02 0.01 0.02 0.03 0.03 0.03 0.03
0.00 0.00 0.01 0.03 0.03 0.03 0.01 0.01 0.01 0.01 0.04 0.04 0.04 0.04 0.05 0.07 0.04 0.02 0.02 0.03 0.03 0.02 0.02 0.02 0.03 0.04 0.06 0.07 0.06 0.05 0.02 0.01 0.01 0.00 0.01 0.02 0.02 0.03 0.02 0.03 0.04 0.05 0.05 0.05
0.00 0.01 0.01 0.00 0.00 0.01 0.01 0.01 0.01 0.01 0.01 0.03 0.04 0.07 0.08 0.10 0.07 0.03 0.03 0.03 0.03 0.02 0.01 0.01 0.02 0.05 0.05 0.05 0.06 0.05 0.03 0.01 0.01 0.02 0.02 0.04 0.05 0.07 0.06 0.06 0.07 0.06 0.05 0.05
0.00 0.01 0.01 0.01 0.00 0.00 0.01 0.00 0.00 0.00 0.00 0.02 0.04 0.05 0.05 0.06 0.04 0.02 0.02 0.02 0.03 0.03 0.02 0.02 0.03 0.03 0.02 0.02 0.04 0.04 0.03 0.02 0.02 0.02 0.03 0.04 0.04 0.05 0.04 0.05 0.07 0.08 0.06 0.05
0.01 0.01 0.01 0.01 0.01 0.01 0.03 0.01 0.01 0.00 0.01 0.01 0.02 0.03 0.03 0.03 0.04 0.02 0.02 0.02 0.02 0.03 0.02 0.02 0.02 0.01 0.01 0.03 0.04 0.03 0.02 0.02 0.03 0.03 0.04 0.05 0.04 0.03 0.03 0.04 0.05 0.06 0.06 0.06
0.01 0.01 0.01 0.01 0.02 0.04 0.03 0.01 0.00 0.01 0.02 0.01 0.01 0.02 0.02 0.02 0.03 0.02 0.02 0.02 0.02 0.03 0.02 0.02 0.01 0.01 0.01 0.03 0.04 0.03 0.01 0.01 0.04 0.07 0.05 0.04 0.03 0.04 0.03 0.03 0.02 0.03 0.04 0.05
0.01 0.01 0.01 0.02 0.04 0.05 0.03 0.01 0.01 0.02 0.04 0.02 0.01 0.02 0.02 0.02 0.03 0.03 0.01 0.01 0.02 0.02 0.02 0.02 0.01 0.01 0.01 0.01 0.01 0.01 0.01 0.01 0.01 0.04 0.04 0.03 0.04 0.04 0.02 0.02 0.02 0.03 0.04 0.04
0.01 0.01 0.01 0.02 0.04 0.07 0.05 0.02 0.01 0.01 0.03 0.01 0.01 0.01 0.02 0.03 0.05 0.05 0.02 0.01 0.01 0.01 0.02 0.02 0.01 0.01 0.01 0.01 0.00 0.00 0.01 0.01 0.01 0.01 0.02 0.02 0.02 0.02 0.03 0.03 0.03 0.04 0.04 0.04
0.02 0.03 0.02 0.02 0.05 0.05 0.01 0.01 0.02 0.04 0.05 0.01 0.00 0.01 0.02 0.03 0.05 0.06 0.04 0.02 0.02 0.02 0.02 0.02 0.02 0.01 0.01 0.01 0.01 0.00 0.01 0.02 0.01 0.01 0.01 0.02 0.02 0.02 0.03 0.04 0.05 0.04 0.04 0.04
0.03 0.05 0.03 0.03 0.07 0.07 0.02 0.02 0.06 0.07 0.03 0.01 0.01 0.01 0.03 0.05 0.05 0.04 0.04 0.04 0.04 0.04 0.05 0.03 0.03 0.02 0.01 0.01 0.01 0.01 0.01 0.01 0.01 0.01 0.01 0.01 0.02 0.02 0.03 0.05 0.06 0.05 0.04 0.04
0.03 0.03 0.03 0.04 0.06 0.04 0.03 0.03 0.03 0.02 0.02 0.02 0.02 0.02 0.02 0.02 0.03 0.03 0.02 0.03 0.04 0.03 0.06 0.04 0.02 0.03 0.02 0.01 0.01 0.01 0.01 0.01 0.01 0.01 0.01 0.02 0.02 0.02 0.03 0.04 0.04 0.04 0.04 0.04
0.04 0.02 0.03 0.05 0.06 0.04 0.02 0.02 0.02 0.02 0.02 0.02 0.02 0.02 0.01 0.01 0.01 0.02 0.02 0.02 0.02 0.02 0.03 0.03 0.03 0.02 0.02 0.02 0.01 0.01 0.01 0.01 0.01 0.02 0.02 0.02 0.03 0.03 0.03 0.04 0.04 0.04 0.04 0.04
0.03 0.03 0.05 0.05 0.05 0.06 0.03 0.02 0.01 0.01 0.02 0.01 0.01 0.02 0.02 0.02 0.01 0.02 0.02 0.02 0.02 0.02 0.02 0.01 0.01 0.01 0.01 0.02 0.02 0.02 0.02 0.01 0.01 0.01 0.01 0.02 0.02 0.02 0.02 0.03 0.03 0.03 0.03 0.03
0.02 0.04 0.04 0.06 0.04 0.06 0.05 0.03 0.02 0.04 0.06 0.04 0.02 0.02 0.03 0.03 0.02 0.02 0.02 0.03 0.03 0.03 0.03 0.02 0.01 0.01 0.01 0.02 0.02 0.02 0.02 0.02 0.01 0.01 0.01 0.02 0.02 0.02 0.02 0.02 0.03 0.02 0.02 0.01
MSLP
1008.51 1009.15 1009.64 1010.00 1010.27 1010.46 1010.61 1010.72 1010.77 1010.73 1010.56 1010.24 1009.76 1009.15 1008.46 1007.75 1007.11 1006.59 1006.24 1006.07 1006.06 1006.19 1006.41 1006.66 1006.92 1007.17 1007.40 1007.63 1007.87 1008.13 1008.45 1008.82 1009.23 1009.69 1010.18 1010.66 1011.11 1011.50 1011.80 1011.99 1012.06 1011.99 1011.81 1011.54
1009.26 1009.70 1010.01 1010.21 1010.35 1010.47 1010.60 1010.71 1010.78 1010.75 1010.59 1010.25 1009.74 1009.10 1008.38 1007.67 1007.07 1006.64 1006.43 1006.45 1006.66 1007.01 1007.42 1007.83 1008.18 1008.46 1008.66 1008.80 1008.92 1009.06 1009.25 1009.51 1009.84 1010.24 1010.67 1011.11 1011.53 1011.89 1012.17 1012.34 1012.39 1012.34 1012.18 1011.95
1009.80 1010.03 1010.14 1010.18 1010.21 1010.28 1010.40 1010.54 1010.64 1010.64 1010.49 1010.13 1009.59 1008.90 1008.15 1007.45 1006.90 1006.58 1006.53 1006.75 1007.19 1007.77 1008.40 1008.98 1009.45 1009.77 1009.96 1010.04 1010.07 1010.09 1010.16 1010.31 1010.55 1010.86 1011.23 1011.62 1012.00 1012.32 1012.57 1012.72 1012.77 1012.72 1012.59 1012.39
1010.09 1010.10 1010.03 1009.95 1009.91 1009.97 1010.12 1010.32 1010.49 1010.55 1010.41 1010.05 1009.48 1008.75 1007.96 1007.24 1006.72 1006.48 1006.56 1006.95 1007.59 1008.38 1009.20 1009.94 1010.53 1010.93 1011.13 1011.19 1011.15 1011.10 1011.08 1011.15 1011.31 1011.56 1011.87 1012.21 1012.53 1012.82 1013.03 1013.16 1013.20 1013.16 1013.05 1012.88
1010.15 1009.99 1009.78 1009.62 1009.57 1009.67 1009.91 1010.21 1010.48 1010.62 1010.53 1010.18 1009.59 1008.81 1007.97 1007.22 1006.68 1006.47 1006.61 1007.10 1007.86 1008.79 1009.75 1010.62 1011.30 1011.77 1012.01 1012.08 1012.03 1011.95 1011.91 1011.94 1012.06 1012.27 1012.55 1012.85 1013.13 1013.38 1013.56 1013.67 1013.70 1013.66 1013.56 1013.41
1010.06 1009.77 1009.49 1009.32 1009.32 1009.51 1009.87 1010.32 1010.72 1010.97 1010.96 1010.64 1010.04 1009.23 1008.33 1007.51 1006.92 1006.66 1006.78 1007.28 1008.07 1009.03 1010.05 1010.97 1011.71 1012.23 1012.52 1012.64 1012.63 1012.58 1012.56 1012.61 1012.75 1012.96 1013.22 1013.49 1013.75 1013.96 1014.11 1014.20 1014.21 1014.17 1014.08 1013.93
1009.90 1009.56 1009.28 1009.15 1009.24 1009.56 1010.08 1010.68 1011.24 1011.61 1011.69 1011.43 1010.84 1010.01 1009.06 1008.16 1007.48 1007.13 1007.15 1007.56 1008.27 1009.18 1010.15 1011.05 1011.80 1012.34 1012.69 1012.86 1012.93 1012.96 1013.01 1013.13 1013.31 1013.55 1013.83 1014.10 1014.33 1014.52 1014.64 1014.71 1014.71 1014.66 1014.57 1014.43
1009.77 1009.45 1009.21 1009.16 1009.37 1009.83 1010.50 1011.26 1011.95 1012.45 1012.62 1012.43 1011.88 1011.04 1010.06 1009.10 1008.32 1007.84 1007.73 1007.97 1008.53 1009.29 1010.14 1010.96 1011.66 1012.20 1012.57 1012.81 1012.97 1013.11 1013.27 1013.48 1013.74 1014.04 1014.34 1014.61 1014.84 1015.00 1015.11 1015.15 1015.15 1015.10 1015.02 1014.88
1009.70 1009.44 1009.28 1009.33 1009.65 1010.23 1011.01 1011.88 1012.68 1013.27 1013.53 1013.41 1012.91 1012.11 1011.13 1010.14 1009.29 1008.69 1008.43 1008.50 1008.87 1009.44 1010.11 1010.80 1011.41 1011.91 1012.30 1012.61 1012.86 1013.11 1013.39 1013.71 1014.05 1014.41 1014.74 1015.02 1015.24 1015.39 1015.48 1015.51 1015.51 1015.48 1015.41 1015.30
1009.68 1009.50 1009.44 1009.58 1009.97 1010.62 1011.45 1012.36 1013.20 1013.83 1014.15 1014.09 1013.66 1012.92 1012.00 1011.03 1010.16 1009.50 1009.13 1009.04 1009.23 1009.61 1010.11 1010.65 1011.15 1011.61 1012.00 1012.36 1012.70 1013.06 1013.44 1013.86 1014.28 1014.69 1015.05 1015.34 1015.55 1015.68 1015.76 1015.79 1015.80 1015.80 1015.77 1015.69
1009.64 1009.56 1009.59 1009.79 1010.21 1010.85 1011.66 1012.52 1013.31 1013.92 1014.24 1014.21 1013.85 1013.21 1012.39 1011.51 1010.69 1010.05 1009.63 1009.46 1009.52 1009.76 1010.12 1010.53 1010.95 1011.36 1011.76 1012.15 1012.57 1013.02 1013.50 1014.00 1014.48 1014.93 1015.30 1015.59 1015.78 1015.90 1015.97 1016.02 1016.05 1016.08 1016.10 1016.08
1009.54 1009.56 1009.66 1009.89 1010.29 1010.86 1011.55 1012.28 1012.94 1013.44 1013.70 1013.68 1013.37 1012.83 1012.14 1011.40 1010.71 1010.16 1009.79 1009.62 1009.64 1009.81 1010.09 1010.43 1010.80 1011.19 1011.60 1012.04 1012.52 1013.05 1013.60 1014.16 1014.69 1015.15 1015.53 1015.81 1015.99 1016.10 1016.16 1016.22 1016.28 1016.35 1016.43 1016.47
1009.36 1009.48 1009.63 1009.86 1010.19 1010.63 1011.14 1011.67 1012.13 1012.46 1012.60 1012.52 1012.24 1011.79 1011.24 1010.66 1010.15 1009.76 1009.52 1009.43 1009.50 1009.69 1009.96 1010.29 1010.66 1011.06 1011.51 1012.00 1012.55 1013.14 1013.75 1014.36 1014.91 1015.39 1015.77 1016.03 1016.20 1016.29 1016.36 1016.42 1016.51 1016.63 1016.75 1016.85
1009.14 1009.35 1009.54 1009.76 1010.00 1010.28 1010.57 1010.84 1011.05 1011.14 1011.11 1010.92 1010.61 1010.22 1009.79 1009.39 1009.08 1008.88 1008.81 1008.88 1009.06 1009.34 1009.68 1010.06 1010.48 1010.94 1011.44 1012.00 1012.61 1013.27 1013.93 1014.57 1015.16 1015.64 1016.02 1016.27 1016.43 1016.52 1016.58 1016.65 1016.75 1016.90 1017.06 1017.21
1008.94 1009.24 1009.48 1009.68 1009.83 1009.95 1010.01 1010.01 1009.93 1009.76 1009.50 1009.16 1008.78 1008.39 1008.04 1007.79 1007.65 1007.64 1007.77 1008.02 1008.37 1008.78 1009.23 1009.72 1010.23 1010.77 1011.36 1012.00 1012.68 1013.39 1014.11 1014.79 1015.40 1015.90 1016.28 1016.53 1016.69 1016.77 1016.83 1016.90 1017.00 1017.15 1017.33 1017.50
1008.84 1009.23 1009.53 1009.72 1009.80 1009.77 1009.62 1009.36 1009.00 1008.55 1008.04 1007.51 1007.00 1006.57 1006.25 1006.09 1006.09 1006.25 1006.56 1006.99 1007.50 1008.07 1008.66 1009.27 1009.90 1010.55 1011.23 1011.95 1012.70 1013.48 1014.25 1014.97 1015.61 1016.13 1016.53 1016.80 1016.96 1017.04 1017.10 1017.16 1017.25 1017.38 1017.54 1017.70
1008.90 1009.37 1009.72 1009.93 1009.97 1009.82 1009.50 1009.01 1008.39 1007.67 1006.92 1006.18 1005.53 1005.01 1004.66 1004.53 1004.61 1004.89 1005.34 1005.92 1006.59 1007.30 1008.04 1008.78 1009.53 1010.28 1011.06 1011.86 1012.68 1013.52 1014.34 1015.10 1015.77 1016.33 1016.76 1017.05 1017.23 1017.32 1017.37 1017.41 1017.47 1017.56 1017.69 1017.81
1009.10 1009.64 1010.04 1010.27 1010.28 1010.06 1009.61 1008.95 1008.12 1007.19 1006.21 1005.28 1004.46 1003.83 1003.42 1003.28 1003.39 1003.74 1004.28 1004.97 1005.76 1006.60 1007.46 1008.32 1009.17 1010.02 1010.88 1011.75 1012.63 1013.51 1014.37 1015.17 1015.88 1016.48 1016.94 1017.26 1017.47 1017.57 1017.62 1017.64 1017.66 1017.71 1017.78 1017.85
1009.35 1009.93 1010.36 1010.61 1010.61 1010.35 1009.82 1009.05 1008.07 1006.98 1005.84 1004.75 1003.79 1003.05 1002.57 1002.39 1002.50 1002.88 1003.47 1004.24 1005.12 1006.05 1007.01 1007.96 1008.89 1009.82 1010.74 1011.66 1012.58 1013.49 1014.37 1015.20 1015.94 1016.56 1017.06 1017.42 1017.65 1017.78 1017.83 1017.84 1017.83 1017.83 1017.84 1017.85
1009.53 1010.09 1010.53 1010.78 1010.78 1010.50 1009.94 1009.11 1008.06 1006.87 1005.63 1004.44 1003.40 1002.58 1002.05 1001.83 1001.93 1002.32 1002.95 1003.77 1004.70 1005.71 1006.73 1007.75 1008.75 1009.72 1010.68 1011.63 1012.56 1013.48 1014.37 1015.20 1015.95 1016.59 1017.11 1017.50 1017.76 1017.91 1017.98 1017.98 1017.96 1017.92 1017.89 1017.85
1009.49 1009.99 1010.40 1010.62 1010.62 1010.34 1009.78 1008.95 1007.89 1006.69 1005.43 1004.22 1003.16 1002.32 1001.76 1001.54 1001.64 1002.04 1002.70 1003.55 1004.53 1005.58 1006.65 1007.72 1008.76 1009.76 1010.73 1011.68 1012.60 1013.50 1014.37 1015.18 1015.92 1016.56 1017.09 1017.49 1017.78 1017.96 1018.04 1018.06 1018.04 1018.00 1017.94 1017.89
1009.14 1009.55 1009.89 1010.07 1010.06 1009.79 1009.26 1008.47 1007.47 1006.32 1005.13 1003.97 1002.95 1002.15 1001.63 1001.44 1001.56 1001.99 1002.67 1003.55 1004.56 1005.64 1006.75 1007.85 1008.90 1009.91 1010.88 1011.81 1012.70 1013.56 1014.38 1015.15 1015.85 1016.47 1016.98 1017.39 1017.70 1017.90 1018.01 1018.06 1018.06 1018.03 1017.99 1017.95
1008.49 1008.78 1009.02 1009.16 1009.12 1008.88 1008.41 1007.70 1006.81 1005.78 1004.70 1003.66 1002.75 1002.05 1001.61 1001.47 1001.65 1002.11 1002.82 1003.72 1004.75 1005.86 1006.98 1008.09 1009.15 1010.16 1011.11 1012.00 1012.85 1013.65 1014.41 1015.11 1015.75 1016.32 1016.80 1017.20 1017.50 1017.72 1017.86 1017.95 1017.99 1018.01 1018.01 1018.01
1007.61 1007.78 1007.93 1008.01 1007.97 1007.76 1007.36 1006.77 1006.02 1005.15 1004.24 1003.36 1002.60 1002.02 1001.69 1001.64 1001.87 1002.37 1003.10 1004.02 1005.06 1006.16 1007.29 1008.39 1009.45 1010.44 1011.36 1012.21 1013.00 1013.74 1014.42 1015.05 1015.61 1016.12 1016.55 1016.91 1017.20 1017.43 1017.60 1017.72 1017.82 1017.90 1017.97 1018.02
1006.66 1006.72 1006.79 1006.83 1006.79 1006.63 1006.32 1005.86 1005.27 1004.58 1003.86 1003.17 1002.57 1002.14 1001.91 1001.94 1002.23 1002.75 1003.49 1004.40 1005.42 1006.51 1007.62 1008.70 1009.73 1010.69 1011.58 1012.39 1013.12 1013.79 1014.40 1014.95 1015.43 1015.86 1016.23 1016.55 1016.81 1017.03 1017.22 1017.38 1017.53 1017.67 1017.81 1017.94
1005.80 1005.79 1005.80 1005.82 1005.79 1005.69 1005.48 1005.15 1004.72 1004.21 1003.67 1003.16 1002.72 1002.42 1002.30 1002.39 1002.71 1003.24 1003.96 1004.83 1005.81 1006.85 1007.91 1008.95 1009.94 1010.87 1011.72 1012.48 1013.17 1013.78 1014.32 1014.80 1015.21 1015.57 1015.87 1016.13 1016.36 1016.56 1016.75 1016.93 1017.12 1017.32 1017.52 1017.72
Thickness
5849 5838 5829 5838 5845 5847 5849 5847 5844 5852 5868 5859 5849 5844 5849 5859 5857 5852 5847 5843 5839 5836 5837 5836 5833 5829 5824 5820 5815 5811 5808 5806 5805 5801 5798 5795 5793 5792 5791 5790 5788 5787 5786 5786
5836 5832 5850 5858 5858 5854 5852 5845 5844 5854 5867 5860 5847 5843 5852 5857 5858 5856 5850 5845 5842 5838 5835 5832 5829 5826 5822 5817 5813 5810 5807 5805 5803 5801 5798 5796 5794 5792 5790 5788 5787 5785 5784 5783
5828 5845 5862 5857 5853 5847 5847 5845 5845 5846 5860 5862 5847 5831 5839 5854 5862 5861 5856 5852 5847 5841 5833 5829 5826 5823 5820 5815 5812 5810 5806 5804 5802 5801 5798 5796 5792 5789 5786 5784 5783 5782 5782 5781
5839 5856 5856 5848 5847 5848 5837 5858 5856 5852 5843 5836 5840 5809 5824 5837 5844 5849 5850 5849 5846 5843 5838 5831 5826 5822 5819 5816 5813 5809 5805 5803 5801 5799 5795 5790 5785 5781 5782 5781 5780 5780 5779 5778
5836 5849 5847 5841 5848 5854 5848 5862 5857 5852 5841 5829 5834 5815 5816 5834 5832 5840 5846 5847 5846 5844 5839 5832 5828 5823 5821 5818 5813 5808 5804 5801 5799 5796 5793 5789 5785 5783 5782 5781 5778 5777 5776 5775
5843 5860 5858 5853 5861 5862 5860 5854 5850 5849 5833 5803 5818 5813 5806 5829 5835 5840 5845 5847 5846 5843 5839 5834 5830 5825 5821 5818 5813 5808 5802 5798 5796 5794 5791 5787 5783 5781 5778 5776 5774 5773 5773 5771
5825 5844 5860 5863 5847 5853 5849 5829 5809 5799 5794 5795 5823 5816 5815 5839 5852 5851 5846 5846 5846 5843 5837 5831 5825 5821 5818 5814 5811 5806 5801 5796 5794 5791 5788 5786 5782 5779 5776 5774 5772 5770 5768 5766
5805 5813 5844 5855 5845 5836 5838 5829 5800 5779 5778 5792 5814 5806 5826 5848 5858 5859 5856 5850 5844 5839 5835 5830 5825 5821 5817 5813 5809 5805 5799 5794 5792 5789 5786 5783 5781 5778 5775 5773 5771 5768 5766 5763
5809 5811 5848 5858 5859 5847 5830 5829 5833 5809 5799 5792 5800 5812 5831 5849 5850 5851 5849 5842 5838 5835 5833 5829 5825 5821 5817 5813 5809 5804 5798 5793 5790 5787 5784 5781 5778 5776 5773 5772 5769 5766 5764 5762
5823 5806 5830 5849 5854 5852 5846 5838 5822 5805 5780 5776 5792 5801 5807 5825 5834 5840 5840 5836 5832 5831 5830 5826 5822 5819 5816 5813 5809 5804 5798 5792 5788 5786 5782 5780 5777 5774 5771 5769 5765 5763 5760 5758
5829 5807 5813 5830 5827 5825 5831 5828 5823 5814 5805 5787 5775 5793 5831 5829 5832 5832 5834 5834 5832 5827 5826 5822 5819 5816 5813 5810 5806 5800 5795 5790 5786 5783 5780 5777 5774 5772 5769 5765 5763 5760 5758 5755
5826 5810 5798 5814 5836 5844 5838 5829 5822 5801 5796 5802 5792 5798 5839 5839 5838 5837 5836 5834 5831 5829 5825 5821 5816 5812 5808 5803 5800 5797 5793 5789 5785 5782 5778 5774 5773 5770 5766 5762 5759 5757 5754 5752
5815 5802 5783 5787 5807 5824 5823 5829 5829 5823 5810 5799 5789 5795 5832 5835 5837 5838 5835 5830 5827 5824 5821 5817 5812 5807 5803 5800 5795 5793 5791 5788 5785 5781 5776 5772 5769 5767 5763 5759 5756 5754 5751 5748
5810 5798 5787 5778 5788 5801 5806 5814 5821 5815 5801 5798 5800 5799 5814 5823 5827 5828 5828 5826 5824 5820 5816 5811 5806 5803 5799 5796 5793 5790 5787 5786 5782 5777 5773 5768 5766 5763 5760 5757 5753 5750 5747 5744
5802 5787 5792 5800 5810 5812 5806 5807 5811 5809 5810 5801 5802 5802 5805 5814 5818 5822 5824 5821 5816 5813 5810 5806 5802 5798 5796 5792 5789 5787 5784 5782 5778 5773 5769 5765 5763 5761 5757 5754 5750 5746 5742 5740
5793 5779 5782 5786 5799 5803 5799 5805 5808 5810 5814 5810 5806 5801 5814 5818 5820 5818 5815 5815 5810 5807 5805 5802 5799 5796 5792 5789 5784 5781 5780 5778 5774 5769 5766 5762 5759 5756 5752 5749 5745 5741 5737 5734
5779 5772 5766 5768 5787 5787 5779 5799 5805 5806 5811 5810 5799 5803 5814 5811 5809 5809 5810 5810 5806 5803 5800 5796 5794 5792 5789 5786 5783 5778 5776 5775 5770 5766 5762 5757 5754 5750 5746 5744 5739 5735 5731 5727
5767 5762 5763 5765 5768 5747 5783 5812 5813 5806 5806 5811 5810 5809 5812 5809 5808 5809 5809 5805 5802 5800 5798 5794 5793 5790 5788 5785 5782 5778 5774 5770 5766 5761 5757 5754 5750 5745 5741 5737 5733 5730 5726 5721
5772 5760 5756 5756 5750 5757 5780 5799 5804 5795 5790 5803 5803 5805 5807 5808 5802 5800 5804 5804 5799 5797 5797 5795 5793 5789 5785 5781 5777 5772 5769 5766 5761 5756 5753 5750 5746 5741 5736 5731 5728 5724 5720 5716
5767 5763 5751 5748 5737 5737 5767 5795 5808 5797 5775 5794 5799 5796 5796 5795 5778 5779 5795 5796 5795 5795 5793 5791 5788 5785 5779 5776 5773 5768 5764 5760 5755 5752 5749 5746 5741 5736 5731 5726 5722 5719 5715 5711
5743 5743 5740 5739 5736 5750 5779 5792 5792 5761 5761 5787 5793 5791 5789 5784 5781 5785 5790 5789 5788 5787 5786 5784 5781 5776 5772 5771 5767 5761 5757 5753 5752 5749 5745 5740 5735 5731 5726 5721 5717 5713 5709 5706
5738 5735 5733 5736 5728 5736 5773 5776 5762 5760 5778 5784 5786 5787 5785 5782 5782 5783 5781 5779 5778 5778 5777 5776 5771 5768 5767 5765 5760 5754 5750 5750 5748 5744 5739 5734 5730 5727 5723 5716 5711 5708 5704 5700
5743 5745 5745 5742 5741 5756 5767 5765 5769 5774 5772 5777 5779 5780 5779 5776 5774 5773 5771 5770 5771 5771 5769 5768 5764 5759 5758 5757 5754 5748 5746 5745 5741 5737 5732 5728 5724 5721 5717 5711 5706 5702 5699 5695
5740 5751 5745 5737 5746 5755 5760 5765 5769 5771 5770 5773 5774 5772 5771 5768 5768 5765 5764 5764 5763 5763 5761 5760 5756 5751 5749 5749 5747 5744 5741 5739 5734 5729 5725 5721 5717 5714 5710 5706 5702 5697 5693 5689
5728 5733 5731 5727 5736 5745 5750 5754 5758 5762 5765 5765 5766 5765 5763 5761 5759 5758 5756 5755 5755 5754 5754 5752 5748 5744 5742 5741 5739 5737 5735 5732 5727 5722 5719 5716 5713 5709 5703 5698 5694 5690 5686 5682
5726 5723 5718 5717 5728 5727 5731 5745 5751 5750 5750 5751 5751 5754 5755 5754 5751 5751 5750 5749 5748 5747 5746 5743 5741 5738 5735 5734 5732 5730 5729 5725 5720 5716 5713 5711 5708 5703 5699 5693 5688 5683 5680 5675